Погода в Дунаевцах

Украина / Хмельницкая область     48°53′21″N   26°51′25″E
темп.,
°C
ветер,
м/с
пор.,
м/с
влажн.,
%
обл.,
%
осадки,
мм/ч
давл.,
гПа
погр.,
м
26 июля, пн
пн2600:00+18юв467011 0.0 101882
03:00+17вюв487031 0.0 1018134
06:00+16вюв497011 0.0 1018145
09:00+21юв5116110 0.0 1018423
12:00+26ююв71047100 0.0 10181100
15:00+27ююв7843100 0.0 10171570
18:00+26ююв6852100 0.0 10171031
21:00+21юв4116494 0.0 1017201
27 июля, вт
вт2700:00+19ююв396378 0.1 1018146
03:00+18юв486928 0.4 1018132
06:00+17ююв4107280 0.2 1017156
09:00+22ю596112 0.2 1017339
12:00+27ююв565238 0.7 1016637
15:00+29ю465094 0.7 1015875
18:00+24ю510715 0.0 1015297
21:00+21ю338320 0.8 101539
28 июля, ср
ср2800:00+20ю4108713 0.4 1016153
03:00+20ююз338418 0.4 101527
06:00+19сз35900 0.2 101582
09:00+23ссз457898 0.2 1016410
12:00+27сз345853 0.0 10161009
15:00+29зсз34475 0.0 10151374
18:00+29сз23480 0.0 10141254
21:00+24сз11671 0.0 101411
29 июля, чт
чт2900:00+21вюв227989 1.1 101411
03:00+20ююв33854 1.1 101329
06:00+20ююв34875 0.0 101287
09:00+24юз337315 0.0 1012289
12:00+28сз45502 0.0 1013950
15:00+29зсз56504 0.0 10121405
18:00+28зсз56570 0.0 10121232
21:00+22сз59800 0.0 1013339
30 июля, пт
пт3000:00+19сз36932 0.0 1014116
03:00+17сз34940 0.0 101367
06:00+17ссз33940 0.0 101353
09:00+22ссз11710 0.0 1013354
12:00+26зюз22500 0.0 10121020
15:00+29юз22410 0.0 10111262
18:00+29ююв22440 0.0 1010995
21:00+23ююв46668 0.0 100986